Date,TemperatureHighF,TemperatureAvgF,TemperatureLowF,DewpointHighF,DewpointAvgF,DewpointLowF,HumidityHigh,HumidityAvg,HumidityLow,PressureMaxIn,PressureMinIn,WindSpeedMaxMPH,WindSpeedAvgMPH,GustSpeedMaxMPH,PrecipitationSumIn
2012-1-1,68,51,32,55,40,30,95,69,32,30.08,29.78,20,3,30,0.09
2012-1-2,55,43,33,34,16,8,49,33,21,29.97,29.83,22,5,23,0.00
2012-1-3,35,30,26,16,6,0,49,37,24,30.25,29.94,19,7,33,0.00
2012-1-4,44,31,18,19,10,5,83,46,20,30.32,29.99,14,1,15,0.00
2012-1-5,29,28,28,20,20,19,73,70,66,29.98,29.97,0,0,0,0.00
2012-2-12,42,31,0,8,4,0,41,22,21,30.16,30.03,17,5,25,0.00
2012-2-13,52,44,20,20,11,6,86,28,18,30.20,30.04,11,2,20,0.00
2012-2-14,59,44,0,32,16,0,51,24,21,30.05,29.90,21,2,21,0.00
2012-2-15,65,36,0,39,17,0,93,21,23,30.20,29.98,13,2,14,0.00
2012-2-16,62,59,46,45,34,10,72,42,23,30.18,29.91,16,2,16,0.00
2012-2-17,63,58,43,48,41,33,96,56,34,30.02,29.92,12,1,14,0.00
2012-2-18,65,59,41,44,36,26,83,44,26,30.05,29.87,12,2,15,0.00
2012-2-19,65,43,33,46,37,0,96,82,21,30.20,29.63,21,4,25,0.58
2012-2-20,50,38,29,32,28,22,92,71,34,30.28,29.80,19,4,22,0.06
2012-2-21,59,40,25,44,32,23,92,77,47,30.27,29.90,20,2,21,0.01
2012-2-22,70,56,38,48,42,35,92,64,31,29.90,29.49,22,3,25,0.00
2012-2-23,75,60,45,56,51,44,100,75,44,29.60,29.47,21,3,31,0.15
2012-2-24,77,68,50,62,54,22,89,62,29,29.74,29.38,29,7,32,0.15
2012-2-25,53,46,37,23,16,10,43,31,20,30.25,29.75,32,8,35,0.00
2012-2-26,54,40,26,29,18,11,83,46,21,30.44,30.25,10,1,12,0.00
2012-2-27,49,41,30,48,37,25,95,87,70,30.39,30.25,11,0,13,0.13
2012-2-28,67,52,43,48,40,27,97,68,25,30.34,30.22,10,1,12,0.01
2012-2-29,72,58,45,60,50,37,88,75,63,30.22,29.73,31,3,31,0.03
2012-3-1,80,68,50,60,53,36,84,65,22,29.80,29.60,26,5,27,0.00
2012-3-2,59,52,45,57,48,36,94,84,59,29.93,29.60,10,1,12,0.01
2012-3-3,66,57,50,62,52,44,95,84,61,29.67,29.49,16,1,22,0.85
2012-3-4,53,47,38,48,32,14,94,59,26,29.94,29.55,20,3,23,0.26
2012-3-5,52,41,31,30,22,14,79,49,26,30.42,29.85,32,4,35,0.00
2012-3-6,54,39,26,31,22,16,85,54,25,30.61,30.42,11,1,12,0.00
2012-3-7,68,49,31,49,38,29,92,69,39,30.59,30.36,17,2,20,0.00
2012-3-8,74,60,43,56,48,41,95,69,35,30.36,30.04,23,4,25,0.00
2012-3-9,61,56,39,59,44,24,93,69,27,30.23,29.97,17,3,22,0.17
2012-3-10,57,46,36,36,26,17,87,50,22,30.45,30.23,14,2,16,0.00
2012-3-11,64,46,30,35,27,19,91,57,19,30.52,30.36,9,1,11,0.00
2012-3-12,73,51,35,50,40,32,93,69,38,30.37,30.16,15,2,20,0.00
2012-3-13,78,66,57,58,54,48,85,65,49,30.16,30.00,14,3,18,0.02
2012-3-14,84,69,52,58,52,44,95,62,25,30.13,30.04,10,1,11,0.00
2012-3-15,84,68,51,57,51,45,95,61,27,30.18,30.07,13,2,16,0.00
2012-3-16,82,68,57,61,55,48,93,64,32,30.12,30.00,20,1,20,0.14
2012-3-17,79,68,59,63,58,54,96,75,44,30.18,30.07,11,1,12,0.01
2012-3-18,72,64,58,60,58,55,96,83,64,30.25,30.12,7,0,13,0.29
2012-3-19,78,64,54,64,58,53,97,85,50,30.19,30.04,6,0,9,0.18
2012-3-20,82,68,59,64,59,53,96,77,37,30.20,30.04,14,1,20,0.64
2012-3-21,78,67,60,64,60,57,96,78,50,30.23,30.11,14,1,16,0.04
2012-3-22,82,68,58,64,59,54,97,75,39,30.20,30.05,12,1,14,0.01
2012-3-23,85,71,59,64,59,55,96,70,37,30.09,29.88,14,1,18,0.00
2012-3-24,70,65,57,66,62,54,96,91,73,29.91,29.69,17,1,18,0.36
2012-3-25,67,60,54,60,56,53,96,85,67,29.73,29.61,17,2,17,0.01
2012-3-26,76,66,58,56,46,22,94,56,25,30.04,29.70,17,4,25,0.01
2012-3-27,65,51,42,38,21,10,72,33,16,30.29,30.02,18,2,21,0.00
2012-3-28,79,61,42,56,47,34,84,62,43,30.20,29.75,20,5,23,0.01
2012-3-29,83,71,55,56,44,26,79,44,13,29.84,29.72,18,4,23,0.00
2012-3-30,78,64,49,60,50,42,85,62,40,29.97,29.77,12,1,12,0.00
2012-3-31,78,67,62,62,60,55,93,79,51,29.79,29.61,12,2,14,0.00
2012-4-1,70,60,50,56,49,45,88,69,41,29.85,29.61,15,2,17,0.00
2012-4-2,73,65,49,57,45,27,82,53,18,29.87,29.53,18,3,20,0.03
2012-4-3,79,60,40,51,43,34,93,59,27,29.96,29.75,12,1,15,0.00
2012-4-4,86,69,58,64,58,49,93,71,37,29.76,29.52,18,2,24,0.13
2012-4-5,64,59,48,62,46,37,96,66,44,29.78,29.56,15,2,17,0.18
2012-4-6,63,51,42,44,36,22,91,63,23,30.00,29.75,21,3,22,0.04
2012-4-7,69,51,37,42,30,15,94,56,15,30.18,29.99,13,1,18,0.01
2012-4-8,77,58,37,47,35,19,95,53,16,30.06,29.81,19,2,20,0.00
2012-4-9,74,62,48,46,33,24,79,38,17,29.96,29.74,20,2,24,0.00
2012-4-10,74,60,43,46,37,26,91,51,20,29.85,29.66,26,4,28,0.00
2012-4-11,58,51,43,46,24,19,72,36,25,30.04,29.70,23,4,24,0.00
2012-4-12,64,50,36,40,28,22,88,48,22,30.13,30.03,14,2,18,0.00
2012-4-13,70,52,35,44,35,28,94,63,23,30.19,30.08,10,1,11,0.00
2012-4-14,77,59,38,52,40,32,95,57,21,30.26,30.08,17,2,17,0.00
2012-4-15,81,70,58,60,56,50,91,64,42,30.14,30.04,17,4,20,0.00
2012-4-16,85,73,64,61,56,53,78,58,34,30.12,29.98,20,4,22,0.00
2012-4-17,86,73,59,61,55,41,93,57,33,30.09,29.99,13,1,14,0.00
2012-4-18,71,65,56,54,46,40,90,52,35,30.08,29.96,13,2,14,0.03
2012-4-19,65,58,53,55,51,46,89,77,64,30.03,29.95,10,1,11,0.00
2012-4-20,75,62,50,59,54,49,96,76,49,29.96,29.77,7,0,9,0.00
2012-4-21,81,67,54,62,58,53,95,75,47,29.79,29.61,10,1,12,0.00
2012-4-22,66,54,49,60,52,46,94,91,76,29.65,29.37,14,4,23,0.02
2012-4-23,52,47,44,47,40,34,91,76,53,29.60,29.39,19,3,22,0.00
2012-4-24,64,51,36,39,30,18,95,53,18,29.71,29.58,21,3,28,0.00
2012-4-25,68,55,38,52,44,35,94,69,39,29.89,29.71,15,2,18,0.00
2012-4-26,78,66,56,64,57,51,95,76,47,29.82,29.66,20,4,24,0.00
2012-4-27,78,69,60,62,52,39,93,58,29,30.03,29.72,13,2,15,0.00
2012-4-28,62,57,53,50,46,43,84,67,52,30.13,30.01,14,2,14,0.01
2012-4-29,77,63,55,58,54,48,88,72,51,30.13,30.03,11,1,11,0.03
2012-4-30,80,68,60,64,59,55,94,74,51,30.19,30.03,12,2,16,0.01
2012-5-1,88,75,67,67,63,58,90,69,42,30.08,29.95,16,3,19,0.02
2012-5-2,93,78,68,69,65,60,88,66,35,30.04,29.95,12,2,15,0.00
2012-5-3,95,80,65,70,64,57,94,64,29,30.05,29.94,9,1,10,0.00
2012-5-4,90,76,62,67,63,60,95,68,38,29.98,29.82,13,2,17,0.00
2012-5-5,84,74,64,72,65,62,95,77,52,29.83,29.71,12,0,15,0.15
2012-5-6,73,68,63,67,63,60,95,84,70,29.97,29.80,15,2,17,0.39
2012-5-7,79,67,57,61,58,54,94,73,48,30.01,29.90,10,2,13,0.06
2012-5-8,80,70,59,61,58,55,93,68,47,29.97,29.77,15,3,16,0.00
2012-5-9,77,68,60,67,61,57,93,80,62,29.81,29.57,16,2,25,0.00
2012-5-10,73,62,54,57,48,40,91,64,33,29.89,29.62,18,3,22,0.01
2012-5-11,74,61,48,51,42,29,93,57,21,30.16,29.89,11,1,12,0.00
2012-5-12,77,63,46,58,48,40,95,65,28,30.27,30.16,11,1,12,0.00
2012-5-13,74,64,58,59,57,55,93,78,55,30.19,30.15,11,1,13,0.00
2012-5-20,76,76,76,42,42,42,29,29,29,30.02,30.02,5,5,7,0.00
2012-5-21,75,68,65,64,62,61,93,83,65,29.96,29.92,7,1,10,0.00
2012-5-22,86,73,62,66,62,56,95,73,38,29.82,29.71,12,1,16,0.00
2012-5-23,83,71,63,66,62,55,94,77,46,29.89,29.77,20,1,33,0.38
2012-5-24,86,76,64,70,66,62,93,71,47,29.98,29.88,11,1,12,0.11
2012-5-25,88,75,62,69,64,60,96,74,42,30.06,29.98,11,1,14,0.00
2012-5-26,85,75,66,68,65,62,95,74,47,30.08,30.00,14,2,15,0.00
2012-5-27,86,74,65,71,67,63,95,80,56,30.09,29.99,15,1,15,0.00
2012-5-28,90,78,71,70,68,64,94,75,44,30.03,29.91,14,1,20,0.00
2012-5-29,88,78,70,71,68,64,95,74,48,29.95,29.76,16,2,18,0.00
2012-5-30,82,73,65,71,67,60,96,82,50,29.79,29.64,16,2,17,0.46
2012-5-31,92,77,62,66,60,51,96,61,27,29.82,29.72,19,1,22,0.07
2012-6-1,88,73,64,73,67,60,95,84,50,29.83,29.60,24,2,24,0.89
2012-6-2,76,67,58,63,54,48,96,68,38,29.82,29.69,15,2,15,0.01
2012-6-3,80,61,53,60,53,46,96,80,37,29.87,29.72,19,1,19,0.00
2012-6-4,84,74,61,62,56,47,92,58,29,29.74,29.57,17,2,18,0.00
2012-6-5,76,68,59,57,55,50,88,63,41,29.87,29.64,11,4,16,0.00
2012-6-6,74,63,55,56,53,48,93,73,41,29.94,29.84,12,1,12,0.00
2012-6-7,82,68,54,61,54,49,95,67,32,29.98,29.91,10,1,12,0.00
2012-6-8,85,71,56,60,54,45,95,63,27,29.98,29.90,11,1,12,0.00
2012-6-9,90,74,56,64,56,48,95,62,25,30.01,29.91,11,1,13,0.00
2012-6-10,89,76,63,65,59,50,94,60,27,30.09,29.99,13,2,15,0.00
2012-6-11,83,73,68,72,68,63,94,83,64,30.09,29.98,17,2,19,0.75
2012-6-12,83,74,71,71,69,68,94,84,65,29.98,29.80,12,3,15,0.00
2012-6-13,84,75,65,71,64,49,95,71,45,29.94,29.78,17,2,17,0.37
2012-6-14,78,63,57,65,55,49,88,76,57,30.09,29.94,15,1,16,0.00
2012-6-15,80,69,58,61,57,54,90,68,48,30.15,30.07,14,2,16,0.00
2012-6-16,80,73,59,58,53,48,83,51,34,30.19,30.08,17,2,20,0.00
2012-6-17,83,69,55,60,54,48,94,65,31,30.12,29.95,8,1,12,0.00
2012-6-18,85,71,61,68,62,57,92,74,44,30.04,29.97,11,1,13,0.10
2012-6-19,93,79,67,71,66,63,89,66,41,30.09,30.00,11,1,12,0.00
2012-6-20,75,72,69,69,68,67,93,88,80,30.06,30.03,0,0,0,0.00
2012-6-24,77,77,77,68,68,68,74,74,74,29.87,29.87,0,0,0,0.00
2012-6-25,92,79,72,72,69,64,92,74,41,29.87,29.60,19,2,19,0.01
2012-6-26,82,72,62,68,50,41,88,50,27,29.83,29.73,17,2,23,0.00
2012-6-27,88,69,56,61,52,44,94,63,22,29.89,29.80,14,1,18,0.00
2012-6-28,96,79,59,67,57,48,94,55,20,29.92,29.77,15,2,19,0.00
2012-6-29,105,88,69,76,66,58,88,53,27,29.79,29.64,32,1,33,0.00
2012-6-30,104,89,70,75,64,58,87,48,26,29.80,29.72,20,1,24,0.00
2012-7-1,102,86,74,76,68,50,75,56,27,29.85,29.75,15,1,15,0.00
2012-7-6,89,80,76,74,72,68,92,78,60,29.87,29.81,8,0,19,0.00
2012-7-7,101,87,72,75,70,62,95,61,30,29.90,29.80,11,2,16,0.00
2012-7-8,103,87,77,74,71,61,88,62,27,29.86,29.71,13,2,17,0.57
2012-7-9,94,84,74,73,70,68,87,65,45,29.89,29.75,18,1,18,0.00
2012-7-10,83,77,74,74,71,69,95,82,67,29.95,29.84,12,0,21,0.43
2012-7-11,79,74,69,73,69,65,92,85,73,30.06,29.93,12,0,15,0.04
2012-7-12,82,75,69,71,67,65,92,78,57,30.10,30.03,11,1,15,0.00
2012-7-13,74,58,0,70,54,0,86,67,86,30.13,30.07,0,0,0,0.00
2012-7-14,93,46,0,72,37,0,78,32,42,30.16,30.02,13,1,16,0.00
2012-7-15,94,85,79,73,70,62,78,63,41,30.12,29.96,15,2,15,0.00
2012-7-16,94,86,80,73,71,66,74,62,42,30.01,29.81,14,2,16,0.00
2012-7-17,98,87,80,72,70,64,74,59,36,29.88,29.78,13,1,16,0.00
2012-7-18,96,85,76,76,72,66,87,67,42,29.90,29.81,18,2,28,0.63
2012-7-19,97,86,81,75,71,65,81,63,38,29.93,29.80,16,4,18,0.00
2012-7-20,94,83,75,73,71,63,90,69,46,29.87,29.79,20,4,23,0.23
2012-7-21,91,80,76,74,72,70,89,78,53,30.02,29.85,13,2,16,0.00
2012-7-22,88,82,76,76,73,68,94,75,62,30.12,29.99,6,3,6,0.03
2012-7-23,95,87,81,75,73,65,79,64,39,30.09,29.92,13,4,15,0.00
2012-7-24,95,86,79,75,72,69,79,64,49,29.95,29.72,17,6,28,0.14
2012-7-25,91,84,75,70,68,63,74,60,42,29.88,29.76,10,0,10,0.00
2012-7-26,85,85,85,68,68,68,57,57,57,29.84,29.69,0,0,0,0.00
2012-7-27,85,85,85,68,68,68,57,57,57,29.87,29.74,0,0,0,0.00
2012-7-28,85,85,85,68,68,68,57,57,57,29.90,29.85,0,0,0,0.00
2012-7-29,94,90,75,71,70,57,82,52,30,29.92,29.83,10,4,11,0.00
2012-7-30,88,81,73,73,70,67,91,70,52,29.95,29.86,11,1,11,0.00
2012-7-31,90,80,74,71,69,66,89,72,49,29.93,29.80,9,0,10,0.00
2012-8-1,91,86,72,71,68,64,90,57,43,29.85,29.73,17,1,21,0.33
2012-8-2,93,81,74,73,68,58,89,68,33,29.88,29.78,16,2,20,0.00
2012-8-3,92,86,76,69,67,63,77,54,38,30.01,29.85,13,4,18,0.00
2012-8-4,93,89,76,74,68,56,93,52,40,30.12,29.99,13,3,15,0.00
2012-8-5,90,86,78,77,70,68,86,59,48,30.15,30.02,15,3,20,0.28
2012-8-6,93,84,75,72,70,67,88,66,43,30.06,29.90,13,4,14,0.02
2012-8-7,87,79,75,74,72,70,88,80,59,29.98,29.89,10,0,10,0.01
2012-8-8,88,82,78,76,73,70,90,75,57,29.93,29.84,9,0,10,0.24
2012-8-9,89,42,0,73,35,0,95,33,55,29.93,29.79,10,1,12,0.00
2012-8-10,84,82,77,75,72,69,89,73,63,29.81,29.73,15,2,17,0.03
2012-8-11,88,78,74,74,72,68,89,83,58,29.87,29.78,17,1,18,0.01
2012-8-12,90,80,74,72,69,64,92,70,45,29.93,29.84,7,0,12,0.00
2012-8-13,91,84,72,72,68,62,95,59,39,29.97,29.85,7,0,9,0.00
2012-8-14,93,86,72,71,66,58,91,54,37,29.88,29.76,14,2,16,0.00
2012-8-15,87,82,74,74,70,67,88,67,51,29.84,29.78,14,2,17,0.25
2012-8-16,89,81,71,72,67,59,89,65,38,29.95,29.84,7,0,11,0.00
2012-8-17,93,86,72,70,66,60,89,52,36,29.92,29.73,15,1,15,0.00
2012-8-18,87,84,73,70,68,57,82,59,50,29.83,29.73,11,1,12,0.00
2012-8-19,81,77,70,70,67,66,95,72,59,29.84,29.75,9,0,9,0.07
2012-8-20,83,76,70,68,67,63,91,74,52,29.89,29.77,9,0,10,0.00
2012-8-21,83,79,72,72,68,61,94,69,56,29.99,29.88,5,0,5,0.00
2012-8-22,82,78,71,72,70,63,96,75,59,30.05,29.97,11,1,12,0.00
2012-8-23,84,78,70,69,66,58,94,67,44,30.07,30.00,12,1,14,0.00
2012-8-24,79,77,74,68,64,60,80,65,58,30.09,30.01,7,1,10,0.00
2012-8-25,74,72,67,65,62,55,83,74,65,30.05,29.98,13,1,17,0.03
2012-8-26,85,76,67,70,66,64,94,72,52,30.12,30.01,6,0,10,0.00
2012-8-27,90,82,73,74,71,69,92,69,53,30.08,29.92,11,1,12,0.01
2012-8-28,86,83,77,74,73,71,84,72,64,29.96,29.82,15,3,15,0.00
2012-8-29,86,81,76,73,70,63,84,70,49,29.93,29.82,8,2,10,0.00
2012-8-30,90,83,71,73,69,65,96,65,46,30.08,29.92,12,2,13,0.00
2012-8-31,94,87,75,74,70,59,92,59,48,30.14,29.98,13,3,13,0.00
2012-9-1,93,90,76,75,72,68,93,57,47,30.03,29.94,14,1,16,0.00
2012-9-2,91,85,78,75,74,65,92,68,54,29.98,29.85,11,0,11,0.00
2012-9-3,84,84,84,74,74,74,72,72,72,29.98,29.96,0,0,0,0.00
2012-9-4,89,35,0,73,30,0,97,29,47,29.96,29.83,12,1,19,0.15
2012-9-5,88,86,80,72,70,64,76,59,52,29.88,29.76,16,5,16,0.02
2012-9-6,90,84,76,74,71,68,90,67,54,29.87,29.78,18,7,19,0.01
2012-9-7,85,80,73,72,70,67,89,73,55,29.92,29.78,9,3,12,0.10
2012-9-8,91,84,74,74,70,63,96,64,47,29.80,29.60,13,1,15,0.03
2012-9-9,89,80,67,69,62,51,92,54,39,29.89,29.72,13,1,16,0.01
2012-9-10,78,74,59,60,56,44,88,53,36,30.08,29.88,13,1,17,0.00
2012-9-11,79,74,59,57,54,46,94,51,35,30.23,30.08,8,0,9,0.00
2012-9-12,78,73,56,58,55,46,96,55,38,30.29,30.20,11,1,12,0.00
2012-9-13,80,74,57,63,58,50,96,58,41,30.28,30.16,8,0,11,0.00
2012-9-14,82,78,66,67,64,62,96,63,53,30.19,30.06,6,0,7,0.00
2012-9-15,80,77,64,67,65,61,96,66,55,30.09,30.03,13,1,16,0.00
2012-9-16,75,75,62,64,64,58,93,69,64,30.12,30.02,2,0,2,0.00
2012-9-17,86,71,62,72,65,60,95,84,56,30.06,29.89,11,0,11,0.00
2012-9-18,80,73,69,76,70,67,96,91,71,29.90,29.63,30,2,30,1.28
2012-9-19,74,62,0,69,56,0,97,75,47,30.07,29.70,17,2,17,0.12
2012-9-20,79,65,54,61,56,53,96,77,45,30.10,29.98,11,0,11,0.00
2012-9-21,84,68,54,65,59,52,97,77,43,30.03,29.92,10,0,10,0.00
2012-9-22,88,73,60,68,63,58,96,74,44,29.94,29.80,20,2,21,0.00
2012-9-23,79,68,54,66,52,42,92,61,27,30.05,29.86,15,1,15,0.01
2012-9-24,76,60,49,53,49,43,95,72,32,30.15,30.04,12,0,12,0.00
2012-9-25,80,62,46,59,51,45,96,73,33,30.18,30.08,14,1,14,0.00
2012-9-26,86,67,53,63,57,51,96,74,38,30.15,30.07,12,1,12,0.00
2012-9-27,89,70,55,68,59,53,97,74,31,30.12,30.00,9,0,9,0.00
2012-9-28,88,71,57,69,63,56,97,78,43,30.03,29.90,12,1,12,0.07
2012-9-29,69,64,59,67,62,58,96,95,94,29.93,29.82,11,0,11,0.65
2012-9-30,76,64,56,61,57,53,96,81,47,29.85,29.77,8,0,8,0.01
2012-10-1,66,63,61,63,60,59,96,91,81,29.87,29.79,10,1,10,0.12
2012-10-2,90,77,66,76,71,62,96,85,55,29.88,29.74,15,2,15,0.05
2012-10-3,88,78,73,75,72,68,96,83,52,30.08,29.87,11,1,11,0.01
2012-10-4,78,72,63,70,65,62,94,79,61,30.16,30.06,12,1,12,0.00
2012-10-5,85,68,58,64,60,56,97,79,42,30.11,29.95,9,0,9,0.00
2012-10-6,86,69,55,67,59,54,97,75,41,29.96,29.80,19,1,19,0.00
2012-10-7,67,56,51,57,51,48,93,85,66,30.06,29.88,17,2,17,0.25
2012-10-8,53,50,48,50,47,42,95,87,71,30.16,30.05,14,2,14,0.43
2012-10-9,57,52,48,54,50,47,98,92,83,30.08,29.99,13,2,13,0.02
2012-10-10,75,61,52,55,52,50,94,76,44,30.02,29.88,14,2,14,0.00
2012-10-11,71,55,43,51,44,39,94,71,34,30.23,30.01,12,0,12,0.00
2012-10-12,76,56,41,56,46,40,97,75,32,30.27,30.07,15,1,15,0.00
2012-10-13,71,54,41,51,43,38,93,68,37,30.40,30.25,16,1,16,0.00
2012-10-14,79,59,42,62,51,40,97,80,46,30.28,29.95,16,1,16,0.00
2012-10-15,73,63,55,67,61,52,97,92,75,29.96,29.62,12,0,12,0.49
2012-10-16,73,56,44,52,46,41,96,73,35,29.88,29.74,11,1,11,0.01
2012-10-17,74,56,45,55,47,41,96,77,32,29.93,29.84,12,1,12,0.00
2012-10-18,80,59,43,67,54,42,97,85,53,29.89,29.70,14,1,14,0.07
2012-10-19,80,66,49,67,55,36,97,74,27,29.71,29.59,21,2,21,0.10
2012-10-20,74,56,43,54,46,42,96,73,33,29.87,29.68,11,0,11,0.00
2012-10-21,70,54,42,47,42,38,95,69,32,30.07,29.86,12,0,12,0.00
2012-10-22,76,54,39,54,45,38,97,75,32,30.15,30.06,10,0,10,0.00
2012-10-23,81,59,42,58,48,40,97,75,30,30.12,30.01,11,1,11,0.00
2012-10-24,84,61,45,62,51,44,97,75,31,30.12,30.00,10,0,10,0.00
2012-10-25,83,63,47,62,54,46,97,79,41,30.09,30.02,9,0,9,0.00
2012-10-26,72,64,53,63,59,52,97,87,71,30.04,29.85,17,3,17,0.03
2012-10-27,66,64,62,62,58,54,93,80,72,29.87,29.60,24,6,24,0.01
2012-10-28,63,60,54,54,50,45,92,70,55,29.62,29.46,26,6,26,0.02
2012-10-29,54,47,42,52,42,36,93,84,61,29.48,29.21,29,7,29,0.47
2012-10-30,51,46,41,39,34,30,88,63,48,29.51,29.19,28,7,28,0.14
2012-10-31,55,48,39,36,34,32,80,59,44,29.67,29.50,20,4,20,0.00
2012-11-1,60,49,37,37,35,33,88,59,39,29.76,29.64,19,2,19,0.00
2012-11-2,65,45,31,43,35,30,95,73,34,29.88,29.72,24,1,24,0.00
2012-11-3,62,44,31,41,33,28,96,71,30,30.02,29.87,20,1,20,0.00
2012-11-4,57,44,39,42,38,34,92,78,51,30.01,29.89,12,1,12,0.00
2012-11-5,57,44,33,41,34,30,90,69,36,30.04,29.91,13,1,13,0.00
2012-11-6,47,39,31,34,31,29,94,73,51,30.05,29.83,15,2,15,0.00
2012-11-7,54,44,35,36,32,30,86,64,43,29.85,29.74,11,2,14,0.00
2012-11-8,61,44,32,40,29,16,94,64,18,30.02,29.85,17,1,17,0.00
2012-11-9,66,43,27,41,31,25,95,69,27,30.17,30.02,11,0,11,0.00
2012-11-10,74,48,31,44,35,29,96,68,21,30.31,30.17,13,1,13,0.00
2012-11-11,75,52,33,51,42,32,96,74,34,30.40,30.30,13,1,13,0.00
2012-11-12,76,59,42,61,52,40,97,81,51,30.35,30.10,18,1,18,0.00
2012-11-13,63,51,42,61,48,38,95,89,75,30.32,30.06,21,2,21,0.19
2012-11-14,53,42,34,38,31,27,87,65,41,30.40,30.29,14,2,19,0.00
2012-11-15,48,43,37,43,37,30,94,80,65,30.30,30.14,13,1,13,0.32
2012-11-16,57,46,35,42,37,33,92,75,44,30.30,30.17,16,2,16,0.00
2012-11-17,58,45,33,37,32,26,94,64,29,30.39,30.30,20,3,20,0.00
2012-11-18,59,51,46,46,43,37,85,73,61,30.37,30.25,22,6,22,0.00
2012-11-19,61,53,50,46,44,42,79,71,58,30.25,30.08,19,4,19,0.00
2012-11-20,60,51,40,46,43,38,92,75,53,30.08,29.96,14,1,14,0.00
2012-11-21,60,44,33,46,36,31,96,76,39,30.09,30.00,18,2,18,0.00
2012-11-22,63,43,32,34,29,22,93,65,22,30.16,30.06,16,1,16,0.00
2012-11-23,67,46,27,40,33,25,95,68,27,30.09,29.78,14,1,14,0.00
2012-11-24,55,44,30,37,23,16,61,42,28,30.05,29.78,23,4,23,0.00
2012-11-25,52,35,21,28,21,16,92,61,27,30.10,29.94,14,1,14,0.00
2012-11-26,68,43,25,35,27,23,94,63,19,30.11,30.00,10,0,10,0.00
2012-11-27,58,44,32,43,37,29,92,77,46,30.15,30.02,15,1,15,0.06
2012-11-28,54,40,29,37,32,26,94,75,42,30.31,30.15,12,1,12,0.01
2012-11-29,56,37,23,36,26,21,94,71,27,30.40,30.29,13,1,13,0.00
2012-11-30,63,41,25,38,30,23,95,71,30,30.32,30.21,12,1,12,0.00
2012-12-1,67,44,30,46,36,28,96,77,42,30.32,30.23,8,0,8,0.00
2012-12-2,68,48,34,52,42,32,96,81,47,30.31,30.15,16,1,16,0.00
2012-12-3,77,59,48,57,51,46,96,78,43,30.19,30.11,9,0,9,0.00
2012-12-4,72,55,41,55,48,39,96,81,52,30.23,30.08,15,1,16,0.00
2012-12-5,66,55,40,58,50,38,97,84,64,30.12,30.02,14,1,14,0.00
2012-12-6,52,45,37,44,34,30,95,66,46,30.25,30.11,13,2,13,0.00
2012-12-7,58,50,45,48,41,34,89,70,63,30.13,29.90,7,0,7,0.04
2012-12-8,65,54,46,53,50,44,95,87,64,29.97,29.87,11,1,11,0.01
2012-12-9,72,58,45,60,54,44,97,87,60,30.04,29.90,14,1,14,0.01
2012-12-10,72,66,59,64,59,56,97,81,59,29.90,29.59,20,3,20,0.00
2012-12-11,65,58,51,58,45,36,87,62,43,30.06,29.63,18,3,18,0.00
2012-12-12,51,45,39,39,34,28,88,66,51,30.25,30.06,18,3,18,0.18
2012-12-13,52,41,30,37,34,28,91,76,54,30.30,30.19,17,3,17,0.13
2012-12-14,60,38,26,38,28,20,95,73,22,30.29,30.15,7,0,7,0.00
2012-12-15,57,42,28,39,33,26,94,72,35,30.19,30.01,10,0,10,0.00
2012-12-16,59,54,49,55,50,38,95,88,65,30.01,29.81,13,1,13,0.12
2012-12-17,63,59,55,58,55,53,96,87,72,29.81,29.53,20,2,20,0.17
2012-12-18,63,55,38,55,44,31,95,67,36,29.81,29.55,23,4,23,0.00
2012-12-19,66,45,31,39,34,29,95,69,27,30.04,29.80,19,1,19,0.00
2012-12-20,63,49,35,61,43,32,94,81,58,30.09,29.34,30,3,30,0.52
2012-12-21,63,45,38,60,27,17,92,50,35,29.70,29.36,33,10,33,0.00
2012-12-22,50,40,28,25,20,16,86,49,26,30.00,29.69,22,4,22,0.00
2012-12-23,57,39,24,33,24,15,92,60,20,30.06,29.92,15,1,15,0.00
2012-12-24,54,48,41,47,38,32,85,69,46,29.95,29.81,15,2,15,0.00
2012-12-25,62,52,42,47,43,39,93,71,42,30.03,29.83,13,2,13,0.01
2012-12-26,49,45,40,48,42,36,96,90,71,30.00,29.34,20,3,20,1.31
2012-12-27,51,42,35,36,30,24,87,62,43,29.99,29.53,24,4,24,0.01
2012-12-28,46,38,25,33,27,22,91,67,45,30.11,29.92,9,0,9,0.00
2012-12-29,52,44,38,43,35,25,94,73,51,29.92,29.55,23,3,23,0.30
2012-12-30,47,38,26,25,21,16,85,53,31,30.31,29.84,23,3,23,0.00
2012-12-31,54,39,22,32,23,17,91,59,24,30.29,30.01,20,1,20,0.00
2013-1-1,49,48,46,48,35,25,95,63,41,30.01,29.86,10,0,10,0.17